Time,TemperatureF,DewpointF,PressureIn,WindDirection,WindDirectionDegrees,WindSpeedMPH,WindSpeedGustMPH,Humidity,HourlyPrecipIn,Conditions,Clouds,dailyrainin,SoftwareType,DateUTC
2013-08-06 00:04:00,54.3,48.0,29.97,West,270,1.6,2.2,79,0.00,,---,0.00,VWS V14.01,2013-08-06 07:04:00,
2013-08-06 00:09:00,54.3,48.3,29.97,NW,315,2.5,2.5,80,0.00,,---,0.00,VWS V14.01,2013-08-06 07:09:00,
2013-08-06 00:14:00,54.3,48.3,29.97,NW,315,1.3,2.7,80,0.00,,---,0.00,VWS V14.01,2013-08-06 07:14:00,
2013-08-06 00:19:00,54.3,48.3,29.97,SW,225,0.9,1.3,80,0.00,,---,0.00,VWS V14.01,2013-08-06 07:19:00,
2013-08-06 00:24:00,54.1,48.5,29.97,West,270,2.0,2.2,81,0.00,,---,0.00,VWS V14.01,2013-08-06 07:24:00,
2013-08-06 00:29:00,54.7,48.6,29.97,West,270,2.2,2.2,80,0.00,,---,0.00,VWS V14.01,2013-08-06 07:29:00,
2013-08-06 00:34:00,54.9,48.8,29.97,South,180,0.0,1.1,80,0.00,,---,0.00,VWS V14.01,2013-08-06 07:34:00,
2013-08-06 00:39:00,54.7,48.6,29.97,SW,225,2.7,2.7,80,0.00,,---,0.00,VWS V14.01,2013-08-06 07:39:00,
2013-08-06 00:44:00,54.9,49.2,29.97,South,180,2.7,2.7,81,0.00,,---,0.00,VWS V14.01,2013-08-06 07:44:00,
2013-08-06 00:49:00,54.5,48.8,29.97,West,270,2.0,2.9,81,0.00,,---,0.00,VWS V14.01,2013-08-06 07:49:00,
2013-08-06 00:54:00,54.7,49.0,29.97,West,270,2.0,2.5,81,0.00,,---,0.00,VWS V14.01,2013-08-06 07:54:00,
2013-08-06 00:59:00,54.5,48.8,29.97,NNW,338,0.0,1.3,81,0.00,,---,0.00,VWS V14.01,2013-08-06 07:59:00,
2013-08-06 01:04:00,54.5,49.1,29.97,SW,225,1.6,3.1,82,0.00,,---,0.00,VWS V14.01,2013-08-06 08:04:00,
2013-08-06 01:09:00,54.9,49.2,29.97,West,270,1.6,1.6,81,0.00,,---,0.00,VWS V14.01,2013-08-06 08:09:00,
2013-08-06 01:14:00,54.7,49.3,29.97,West,270,2.9,2.9,82,0.00,,---,0.00,VWS V14.01,2013-08-06 08:14:00,
2013-08-06 01:19:00,54.5,49.1,29.97,West,270,1.6,1.6,82,0.00,,---,0.00,VWS V14.01,2013-08-06 08:19:00,
2013-08-06 01:24:00,54.5,49.1,29.97,NNW,338,2.2,2.9,82,0.00,,---,0.00,VWS V14.01,2013-08-06 08:24:00,
2013-08-06 01:29:00,54.5,49.1,29.97,NNW,338,0.0,0.0,82,0.00,,---,0.00,VWS V14.01,2013-08-06 08:29:00,
2013-08-06 01:34:00,54.5,49.1,29.97,West,270,0.0,2.0,82,0.00,,---,0.00,VWS V14.01,2013-08-06 08:34:00,
2013-08-06 01:39:00,54.5,49.5,29.97,West,270,1.1,1.1,83,0.00,,---,0.00,VWS V14.01,2013-08-06 08:39:00,
2013-08-06 01:44:00,54.9,49.8,29.97,SSE,158,2.2,2.7,83,0.00,,---,0.00,VWS V14.01,2013-08-06 08:44:00,
2013-08-06 01:50:00,55.0,49.7,29.97,South,180,1.6,2.0,82,0.00,,---,0.00,VWS V14.01,2013-08-06 08:50:00,
2013-08-06 01:55:00,55.0,49.7,29.97,SW,225,0.9,2.7,82,0.00,,---,0.00,VWS V14.01,2013-08-06 08:55:00,
2013-08-06 02:00:00,55.0,49.7,29.97,SW,225,0.0,2.7,82,0.00,,---,0.00,VWS V14.01,2013-08-06 09:00:00,
2013-08-06 02:05:00,55.0,49.7,29.97,NNW,338,1.3,1.3,82,0.00,,---,0.00,VWS V14.01,2013-08-06 09:05:00,
2013-08-06 02:10:00,55.4,50.0,29.97,SW,225,0.0,1.3,82,0.00,,---,0.00,VWS V14.01,2013-08-06 09:10:00,
2013-08-06 02:15:00,55.4,50.0,29.97,ESE,112,0.0,0.9,82,0.00,,---,0.00,VWS V14.01,2013-08-06 09:15:00,
2013-08-06 02:20:00,54.9,49.8,29.97,SSE,158,0.0,2.2,83,0.00,,---,0.00,VWS V14.01,2013-08-06 09:20:00,
2013-08-06 02:25:00,54.9,49.5,29.97,SSE,158,0.0,0.9,82,0.00,,---,0.00,VWS V14.01,2013-08-06 09:25:00,
2013-08-06 02:30:00,55.0,50.0,29.97,SE,135,0.0,2.0,83,0.00,,---,0.00,VWS V14.01,2013-08-06 09:30:00,
2013-08-06 02:35:00,54.9,49.8,29.97,West,270,0.0,0.9,83,0.00,,---,0.00,VWS V14.01,2013-08-06 09:35:00,
2013-08-06 02:40:00,54.7,49.6,29.97,South,180,1.1,1.1,83,0.00,,---,0.00,VWS V14.01,2013-08-06 09:40:00,
2013-08-06 02:45:00,55.0,50.0,29.97,West,270,2.0,2.7,83,0.00,,---,0.00,VWS V14.01,2013-08-06 09:45:00,
2013-08-06 02:50:00,54.7,49.6,29.97,SW,225,0.0,2.2,83,0.00,,---,0.00,VWS V14.01,2013-08-06 09:50:00,
2013-08-06 02:55:00,54.9,49.8,29.97,South,180,1.3,2.2,83,0.00,,---,0.00,VWS V14.01,2013-08-06 09:55:00,
2013-08-06 03:00:00,54.9,49.8,29.97,West,270,1.6,1.6,83,0.00,,---,0.00,VWS V14.01,2013-08-06 10:00:00,
2013-08-06 03:05:00,54.9,49.8,29.97,South,180,2.5,2.9,83,0.00,,---,0.00,VWS V14.01,2013-08-06 10:05:00,
2013-08-06 03:10:00,54.7,49.6,29.97,South,180,2.9,2.9,83,0.00,,---,0.00,VWS V14.01,2013-08-06 10:10:00,
2013-08-06 03:15:00,54.7,50.0,29.97,West,270,0.9,2.5,84,0.00,,---,0.00,VWS V14.01,2013-08-06 10:15:00,
2013-08-06 03:20:00,54.5,49.8,29.97,West,270,1.3,2.9,84,0.00,,---,0.00,VWS V14.01,2013-08-06 10:20:00,
2013-08-06 03:25:00,54.7,49.6,29.97,SE,135,0.0,1.6,83,0.00,,---,0.00,VWS V14.01,2013-08-06 10:25:00,
2013-08-06 03:30:00,54.5,49.5,29.97,SW,225,2.0,2.0,83,0.00,,---,0.00,VWS V14.01,2013-08-06 10:30:00,
2013-08-06 03:35:00,54.5,49.8,29.97,West,270,2.5,2.9,84,0.00,,---,0.00,VWS V14.01,2013-08-06 10:35:00,
2013-08-06 03:40:00,54.5,49.8,29.97,West,270,0.0,2.7,84,0.00,,---,0.00,VWS V14.01,2013-08-06 10:40:00,
2013-08-06 03:45:00,54.3,49.6,29.97,NNW,338,2.0,2.0,84,0.00,,---,0.00,VWS V14.01,2013-08-06 10:45:00,
2013-08-06 03:50:00,53.8,48.8,29.97,West,270,1.1,1.1,83,0.00,,---,0.00,VWS V14.01,2013-08-06 10:50:00,
2013-08-06 03:55:00,54.0,49.2,29.97,South,180,1.1,2.9,84,0.00,,---,0.00,VWS V14.01,2013-08-06 10:55:00,
2013-08-06 04:00:00,54.1,49.4,29.97,South,180,1.3,2.0,84,0.00,,---,0.00,VWS V14.01,2013-08-06 11:00:00,
2013-08-06 04:05:00,54.1,49.4,29.97,South,180,3.4,3.6,84,0.00,,---,0.00,VWS V14.01,2013-08-06 11:05:00,
2013-08-06 04:10:00,54.1,49.4,29.97,West,270,3.4,3.4,84,0.00,,---,0.00,VWS V14.01,2013-08-06 11:10:00,
2013-08-06 04:15:00,53.8,48.8,29.97,West,270,1.6,2.2,83,0.00,,---,0.00,VWS V14.01,2013-08-06 11:15:00,
2013-08-06 04:20:00,53.8,49.1,29.97,West,270,0.0,1.1,84,0.00,,---,0.00,VWS V14.01,2013-08-06 11:20:00,
2013-08-06 04:25:00,53.8,49.1,29.97,South,180,0.0,1.1,84,0.00,,---,0.00,VWS V14.01,2013-08-06 11:25:00,
2013-08-06 04:30:00,54.0,49.2,29.97,West,270,2.0,2.0,84,0.00,,---,0.00,VWS V14.01,2013-08-06 11:30:00,
2013-08-06 04:35:00,54.0,49.2,29.97,South,180,2.0,2.0,84,0.00,,---,0.00,VWS V14.01,2013-08-06 11:35:00,
2013-08-06 04:40:00,54.0,48.9,29.97,South,180,0.0,2.2,83,0.00,,---,0.00,VWS V14.01,2013-08-06 11:40:00,
2013-08-06 04:45:00,54.0,49.2,29.97,SW,225,2.2,2.2,84,0.00,,---,0.00,VWS V14.01,2013-08-06 11:45:00,
2013-08-06 04:50:00,53.8,49.1,29.97,South,180,3.6,3.6,84,0.00,,---,0.00,VWS V14.01,2013-08-06 11:50:00,
2013-08-06 04:55:00,53.8,48.8,29.97,SW,225,0.0,2.0,83,0.00,,---,0.00,VWS V14.01,2013-08-06 11:55:00,
2013-08-06 05:00:00,53.2,48.5,29.97,West,270,0.0,1.1,84,0.00,,---,0.00,VWS V14.01,2013-08-06 12:00:00,
2013-08-06 05:05:00,53.2,48.5,29.97,South,180,0.0,2.0,84,0.00,,---,0.00,VWS V14.01,2013-08-06 12:05:00,
2013-08-06 05:10:00,53.4,48.7,29.97,South,180,1.3,1.3,84,0.00,,---,0.00,VWS V14.01,2013-08-06 12:10:00,
2013-08-06 05:15:00,53.6,48.6,29.97,West,270,0.0,0.0,83,0.00,,---,0.00,VWS V14.01,2013-08-06 12:15:00,
2013-08-06 05:20:00,53.6,48.9,29.97,SE,135,0.0,0.0,84,0.00,,---,0.00,VWS V14.01,2013-08-06 12:20:00,
2013-08-06 05:25:00,53.2,48.5,29.97,South,180,2.7,2.7,84,0.00,,---,0.00,VWS V14.01,2013-08-06 12:25:00,
2013-08-06 05:30:00,53.2,48.5,29.97,West,270,0.9,2.9,84,0.00,,---,0.00,VWS V14.01,2013-08-06 12:30:00,
2013-08-06 05:35:00,53.1,48.4,29.97,WNW,292,0.0,1.6,84,0.00,,---,0.00,VWS V14.01,2013-08-06 12:35:00,
2013-08-06 05:40:00,53.1,48.7,29.97,South,180,2.5,2.5,85,0.00,,---,0.00,VWS V14.01,2013-08-06 12:40:00,
2013-08-06 05:45:00,53.6,49.2,29.97,South,180,0.0,1.3,85,0.00,,---,0.00,VWS V14.01,2013-08-06 12:45:00,
2013-08-06 05:50:00,53.4,49.0,29.97,West,270,0.0,1.1,85,0.00,,---,0.00,VWS V14.01,2013-08-06 12:50:00,
2013-08-06 05:55:00,53.1,48.7,29.97,SW,225,1.6,2.5,85,0.00,,---,0.00,VWS V14.01,2013-08-06 12:55:00,
2013-08-06 06:00:00,53.1,48.7,29.97,West,270,1.3,2.0,85,0.00,,---,0.00,VWS V14.01,2013-08-06 13:00:00,
2013-08-06 06:05:00,53.1,48.7,29.97,West,270,1.1,1.1,85,0.00,,---,0.00,VWS V14.01,2013-08-06 13:05:00,
2013-08-06 06:10:00,52.7,48.3,29.97,NNW,338,0.0,2.0,85,0.00,,---,0.00,VWS V14.01,2013-08-06 13:10:00,
2013-08-06 06:15:00,52.5,48.2,29.97,WNW,292,0.9,0.9,85,0.00,,---,0.00,VWS V14.01,2013-08-06 13:15:00,
2013-08-06 06:20:00,52.5,48.5,29.97,West,270,1.1,2.2,86,0.00,,---,0.00,VWS V14.01,2013-08-06 13:20:00,
2013-08-06 06:25:00,52.7,48.6,29.97,NW,315,1.3,2.2,86,0.00,,---,0.00,VWS V14.01,2013-08-06 13:25:00,
2013-08-06 06:30:00,52.3,48.3,29.97,WNW,292,0.0,2.2,86,0.00,,---,0.00,VWS V14.01,2013-08-06 13:30:00,
2013-08-06 06:35:00,52.7,48.6,29.97,West,270,2.0,2.0,86,0.00,,---,0.00,VWS V14.01,2013-08-06 13:35:00,
2013-08-06 06:40:00,52.7,48.6,29.97,West,270,1.1,1.6,86,0.00,,---,0.00,VWS V14.01,2013-08-06 13:40:00,
2013-08-06 06:45:00,52.9,48.8,29.97,NW,315,0.9,0.9,86,0.00,,---,0.00,VWS V14.01,2013-08-06 13:45:00,
2013-08-06 06:50:00,52.5,48.8,29.97,West,270,0.0,2.7,87,0.00,,---,0.00,VWS V14.01,2013-08-06 13:50:00,
2013-08-06 06:55:00,53.1,49.3,29.97,West,270,0.0,0.9,87,0.00,,---,0.00,VWS V14.01,2013-08-06 13:55:00,
2013-08-06 07:00:00,52.9,49.1,29.97,West,270,1.3,1.3,87,0.00,,---,0.00,VWS V14.01,2013-08-06 14:00:00,
2013-08-06 07:06:00,52.7,49.0,29.97,West,270,2.0,2.2,87,0.00,,---,0.00,VWS V14.01,2013-08-06 14:06:00,
2013-08-06 07:11:00,52.5,48.8,29.97,WNW,292,2.9,3.8,87,0.00,,---,0.00,VWS V14.01,2013-08-06 14:11:00,
2013-08-06 07:16:00,53.1,49.3,29.97,North,0,0.0,1.6,87,0.00,,---,0.00,VWS V14.01,2013-08-06 14:16:00,
2013-08-06 07:21:00,53.1,49.3,29.97,West,270,0.0,2.2,87,0.00,,---,0.00,VWS V14.01,2013-08-06 14:21:00,
2013-08-06 07:26:00,53.2,49.5,29.97,ESE,112,0.0,2.0,87,0.00,,---,0.00,VWS V14.01,2013-08-06 14:26:00,
2013-08-06 07:31:00,53.2,49.2,30.00,SSE,158,0.0,1.6,86,0.00,,---,0.00,VWS V14.01,2013-08-06 14:31:00,
2013-08-06 07:36:00,53.2,49.5,30.00,South,180,0.0,1.1,87,0.00,,---,0.00,VWS V14.01,2013-08-06 14:36:00,
2013-08-06 07:41:00,53.1,49.0,30.00,South,180,0.0,0.0,86,0.00,,---,0.00,VWS V14.01,2013-08-06 14:41:00,
2013-08-06 07:46:00,53.1,49.3,30.00,South,180,0.0,2.0,87,0.00,,---,0.00,VWS V14.01,2013-08-06 14:46:00,
2013-08-06 07:51:00,53.6,49.8,30.00,ENE,68,0.0,0.0,87,0.00,,---,0.00,VWS V14.01,2013-08-06 14:51:00,
2013-08-06 07:56:00,53.8,50.0,30.00,SSE,158,0.0,1.3,87,0.00,,---,0.00,VWS V14.01,2013-08-06 14:56:00,
2013-08-06 08:01:00,53.8,49.7,30.00,South,180,1.3,1.6,86,0.00,,---,0.00,VWS V14.01,2013-08-06 15:01:00,
2013-08-06 08:06:00,53.6,49.5,30.00,SW,225,2.0,2.0,86,0.00,,---,0.00,VWS V14.01,2013-08-06 15:06:00,
2013-08-06 08:11:00,53.6,49.8,30.00,West,270,1.1,1.6,87,0.00,,---,0.00,VWS V14.01,2013-08-06 15:11:00,
2013-08-06 08:16:00,53.6,49.8,30.00,NW,315,1.3,2.7,87,0.00,,---,0.00,VWS V14.01,2013-08-06 15:16:00,
2013-08-06 08:21:00,53.2,49.8,30.00,South,180,2.7,2.7,88,0.00,,---,0.00,VWS V14.01,2013-08-06 15:21:00,
2013-08-06 08:26:00,53.2,49.8,30.00,NW,315,1.3,2.0,88,0.00,,---,0.00,VWS V14.01,2013-08-06 15:26:00,
2013-08-06 08:31:00,53.4,50.0,30.00,WNW,292,0.0,2.2,88,0.00,,---,0.00,VWS V14.01,2013-08-06 15:31:00,
2013-08-06 08:36:00,54.0,50.2,30.00,ESE,112,0.0,1.6,87,0.00,,---,0.00,VWS V14.01,2013-08-06 15:36:00,
2013-08-06 08:41:00,54.1,50.4,30.00,SW,225,2.7,2.7,87,0.00,,---,0.00,VWS V14.01,2013-08-06 15:41:00,
2013-08-06 08:46:00,53.6,49.8,30.00,South,180,0.0,2.7,87,0.00,,---,0.00,VWS V14.01,2013-08-06 15:46:00,
2013-08-06 08:51:00,53.8,50.0,30.00,ENE,68,0.0,2.0,87,0.00,,---,0.00,VWS V14.01,2013-08-06 15:51:00,
2013-08-06 08:56:00,54.0,50.5,30.00,SW,225,0.0,1.3,88,0.00,,---,0.00,VWS V14.01,2013-08-06 15:56:00,
2013-08-06 09:01:00,54.3,50.8,30.00,West,270,2.2,2.9,88,0.00,,---,0.00,VWS V14.01,2013-08-06 16:01:00,
2013-08-06 09:06:00,54.0,50.2,30.00,SW,225,1.6,2.7,87,0.00,,---,0.00,VWS V14.01,2013-08-06 16:06:00,
2013-08-06 09:11:00,54.3,50.5,30.00,West,270,1.3,2.5,87,0.00,,---,0.00,VWS V14.01,2013-08-06 16:11:00,
2013-08-06 09:16:00,54.5,51.0,30.00,West,270,1.3,2.9,88,0.00,,---,0.00,VWS V14.01,2013-08-06 16:16:00,
2013-08-06 09:21:00,54.5,50.7,30.00,South,180,1.6,3.1,87,0.00,,---,0.00,VWS V14.01,2013-08-06 16:21:00,
2013-08-06 09:26:00,54.5,50.7,30.00,SW,225,2.7,3.8,87,0.00,,---,0.00,VWS V14.01,2013-08-06 16:26:00,
2013-08-06 09:31:00,54.7,50.9,30.00,West,270,3.4,3.4,87,0.00,,---,0.00,VWS V14.01,2013-08-06 16:31:00,
2013-08-06 09:36:00,55.0,51.2,30.00,NW,315,2.5,3.8,87,0.00,,---,0.00,VWS V14.01,2013-08-06 16:36:00,
2013-08-06 09:41:00,55.2,51.1,30.00,South,180,2.5,4.9,86,0.00,,---,0.00,VWS V14.01,2013-08-06 16:41:00,
2013-08-06 09:46:00,54.7,50.6,30.03,ENE,68,2.0,3.8,86,0.00,,---,0.00,VWS V14.01,2013-08-06 16:46:00,
2013-08-06 09:51:00,55.4,51.0,30.03,NE,45,0.0,3.1,85,0.00,,---,0.00,VWS V14.01,2013-08-06 16:51:00,
2013-08-06 09:56:00,55.6,51.2,30.03,North,0,2.5,3.4,85,0.00,,---,0.00,VWS V14.01,2013-08-06 16:56:00,
2013-08-06 10:01:00,56.1,51.7,30.03,West,270,1.3,2.2,85,0.00,,---,0.00,VWS V14.01,2013-08-06 17:01:00,
2013-08-06 10:06:00,56.3,51.9,30.03,ENE,68,2.2,2.2,85,0.00,,---,0.00,VWS V14.01,2013-08-06 17:06:00,
2013-08-06 10:11:00,56.7,52.2,30.03,West,270,2.5,2.5,85,0.00,,---,0.00,VWS V14.01,2013-08-06 17:11:00,
2013-08-06 10:16:00,57.0,52.6,30.00,SE,135,1.1,4.0,85,0.00,,---,0.00,VWS V14.01,2013-08-06 17:16:00,
2013-08-06 10:21:00,56.7,51.9,30.00,NNW,338,3.1,3.1,84,0.00,,---,0.00,VWS V14.01,2013-08-06 17:21:00,
2013-08-06 10:26:00,56.8,52.1,30.00,NW,315,2.0,2.5,84,0.00,,---,0.00,VWS V14.01,2013-08-06 17:26:00,
2013-08-06 10:28:00,57.0,52.2,30.03,West,270,2.0,4.7,84,0.00,,---,0.00,VWS V14.01,2013-08-06 17:28:00,
2013-08-06 10:33:00,57.2,52.1,30.03,NW,315,3.6,3.6,83,0.00,,---,0.00,VWS V14.01,2013-08-06 17:33:00,
2013-08-06 10:38:00,57.7,52.6,30.03,WNW,292,3.1,3.1,83,0.00,,---,0.00,VWS V14.01,2013-08-06 17:38:00,
2013-08-06 10:43:00,57.6,52.1,30.00,West,270,0.0,2.9,82,0.00,,---,0.00,VWS V14.01,2013-08-06 17:43:00,
2013-08-06 10:48:00,58.3,52.8,30.00,SSE,158,1.6,1.6,82,0.00,,---,0.00,VWS V14.01,2013-08-06 17:48:00,
2013-08-06 10:53:00,58.3,52.5,30.00,NW,315,3.4,3.4,81,0.00,,---,0.00,VWS V14.01,2013-08-06 17:53:00,
2013-08-06 10:58:00,58.3,52.2,30.00,North,0,2.5,3.1,80,0.00,,---,0.00,VWS V14.01,2013-08-06 17:58:00,
2013-08-06 11:03:00,58.5,52.3,30.00,WNW,292,1.3,1.3,80,0.00,,---,0.00,VWS V14.01,2013-08-06 18:03:00,
2013-08-06 11:08:00,59.0,52.8,30.00,ENE,68,1.3,1.3,80,0.00,,---,0.00,VWS V14.01,2013-08-06 18:08:00,
2013-08-06 11:13:00,59.4,53.2,30.00,East,90,2.0,2.0,80,0.00,,---,0.00,VWS V14.01,2013-08-06 18:13:00,
2013-08-06 11:19:00,60.1,53.9,30.00,NNW,338,2.7,2.7,80,0.00,,---,0.00,VWS V14.01,2013-08-06 18:19:00,
2013-08-06 11:24:00,60.6,53.4,30.00,West,270,4.0,4.0,77,0.00,,---,0.00,VWS V14.01,2013-08-06 18:24:00,
2013-08-06 11:29:00,60.1,52.9,30.00,North,0,2.9,4.3,77,0.00,,---,0.00,VWS V14.01,2013-08-06 18:29:00,
2013-08-06 11:34:00,60.4,53.6,30.00,ENE,68,3.6,3.6,78,0.00,,---,0.00,VWS V14.01,2013-08-06 18:34:00,
2013-08-06 11:39:00,60.6,53.4,30.00,NNW,338,2.5,2.5,77,0.00,,---,0.00,VWS V14.01,2013-08-06 18:39:00,
2013-08-06 11:44:00,61.9,54.6,30.00,North,0,4.0,4.0,77,0.00,,---,0.00,VWS V14.01,2013-08-06 18:44:00,
2013-08-06 11:49:00,62.2,54.6,30.00,NW,315,3.1,5.6,76,0.00,,---,0.00,VWS V14.01,2013-08-06 18:49:00,
2013-08-06 11:54:00,62.4,53.3,30.00,North,0,2.0,3.8,72,0.00,,---,0.00,VWS V14.01,2013-08-06 18:54:00,
2013-08-06 11:59:00,62.6,54.2,30.00,North,0,2.5,2.5,74,0.00,,---,0.00,VWS V14.01,2013-08-06 18:59:00,
2013-08-06 12:04:00,63.0,54.2,30.00,NW,315,0.0,1.6,73,0.00,,---,0.00,VWS V14.01,2013-08-06 19:04:00,
2013-08-06 12:09:00,64.0,55.2,30.00,NW,315,3.1,3.8,73,0.00,,---,0.00,VWS V14.01,2013-08-06 19:09:00,
2013-08-06 12:14:00,63.9,54.7,30.00,NE,45,0.0,0.0,72,0.00,,---,0.00,VWS V14.01,2013-08-06 19:14:00,
2013-08-06 12:19:00,64.9,54.9,30.00,North,0,4.7,4.7,70,0.00,,---,0.00,VWS V14.01,2013-08-06 19:19:00,
2013-08-06 12:24:00,65.5,55.0,30.00,NNW,338,2.5,4.9,69,0.00,,---,0.00,VWS V14.01,2013-08-06 19:24:00,
2013-08-06 12:29:00,65.3,55.3,30.00,NNW,338,2.9,2.9,70,0.00,,---,0.00,VWS V14.01,2013-08-06 19:29:00,
2013-08-06 12:34:00,66.0,56.0,30.00,NW,315,1.3,2.7,70,0.00,,---,0.00,VWS V14.01,2013-08-06 19:34:00,
2013-08-06 12:39:00,66.7,56.7,30.00,NW,315,1.6,3.8,70,0.00,,---,0.00,VWS V14.01,2013-08-06 19:39:00,
2013-08-06 12:44:00,67.6,57.1,30.00,WNW,292,3.6,5.4,69,0.00,,---,0.00,VWS V14.01,2013-08-06 19:44:00,
2013-08-06 12:49:00,68.2,56.4,30.00,West,270,3.6,5.8,66,0.00,,---,0.00,VWS V14.01,2013-08-06 19:49:00,
2013-08-06 12:54:00,68.9,57.1,30.00,NW,315,2.5,3.1,66,0.00,,---,0.00,VWS V14.01,2013-08-06 19:54:00,
2013-08-06 12:59:00,69.1,56.4,30.00,South,180,2.9,6.3,64,0.00,,---,0.00,VWS V14.01,2013-08-06 19:59:00,
2013-08-06 13:04:00,69.4,57.6,30.00,NW,315,4.9,4.9,66,0.00,,---,0.00,VWS V14.01,2013-08-06 20:04:00,
2013-08-06 13:09:00,69.8,57.5,30.00,West,270,5.6,5.6,65,0.00,,---,0.00,VWS V14.01,2013-08-06 20:09:00,
2013-08-06 13:14:00,69.4,56.3,30.00,NNW,338,4.7,4.7,63,0.00,,---,0.00,VWS V14.01,2013-08-06 20:14:00,
2013-08-06 13:19:00,68.5,53.7,30.00,West,270,4.0,4.0,59,0.00,,---,0.00,VWS V14.01,2013-08-06 20:19:00,
2013-08-06 13:24:00,69.1,56.4,30.00,West,270,1.3,4.7,64,0.00,,---,0.00,VWS V14.01,2013-08-06 20:24:00,
2013-08-06 13:29:00,69.4,56.3,30.00,West,270,3.8,5.4,63,0.00,,---,0.00,VWS V14.01,2013-08-06 20:29:00,
2013-08-06 13:34:00,69.8,57.1,30.00,West,270,6.3,6.3,64,0.00,,---,0.00,VWS V14.01,2013-08-06 20:34:00,
2013-08-06 13:39:00,70.0,55.5,30.00,NW,315,7.4,7.4,60,0.00,,---,0.00,VWS V14.01,2013-08-06 20:39:00,
2013-08-06 13:44:00,69.4,56.8,29.97,NNE,22,1.3,3.4,64,0.00,,---,0.00,VWS V14.01,2013-08-06 20:44:00,
2013-08-06 13:49:00,68.7,56.1,29.97,NW,315,4.9,5.8,64,0.00,,---,0.00,VWS V14.01,2013-08-06 20:49:00,
2013-08-06 13:54:00,68.9,56.7,29.97,West,270,2.7,3.8,65,0.00,,---,0.00,VWS V14.01,2013-08-06 20:54:00,
2013-08-06 13:59:00,70.0,57.3,30.00,West,270,2.5,4.7,64,0.00,,---,0.00,VWS V14.01,2013-08-06 20:59:00,
2013-08-06 14:04:00,70.0,56.4,30.00,South,180,2.5,3.8,62,0.00,,---,0.00,VWS V14.01,2013-08-06 21:04:00,
2013-08-06 14:09:00,70.7,56.6,30.00,NW,315,5.4,5.4,61,0.00,,---,0.00,VWS V14.01,2013-08-06 21:09:00,
2013-08-06 14:14:00,71.2,57.6,29.97,West,270,3.8,4.9,62,0.00,,---,0.00,VWS V14.01,2013-08-06 21:14:00,
2013-08-06 14:19:00,71.2,56.7,29.97,West,270,5.8,7.2,60,0.00,,---,0.00,VWS V14.01,2013-08-06 21:19:00,
2013-08-06 14:24:00,71.4,57.7,29.97,West,270,6.0,6.0,62,0.00,,---,0.00,VWS V14.01,2013-08-06 21:24:00,
2013-08-06 14:29:00,70.7,55.2,29.97,South,180,6.3,6.3,58,0.00,,---,0.00,VWS V14.01,2013-08-06 21:29:00,
2013-08-06 14:34:00,71.6,57.0,29.97,West,270,7.8,7.8,60,0.00,,---,0.00,VWS V14.01,2013-08-06 21:34:00,
2013-08-06 14:39:00,71.4,56.8,29.97,SE,135,2.7,6.3,60,0.00,,---,0.00,VWS V14.01,2013-08-06 21:39:00,
2013-08-06 14:44:00,72.1,57.0,29.97,West,270,6.3,6.3,59,0.00,,---,0.00,VWS V14.01,2013-08-06 21:44:00,
2013-08-06 14:49:00,72.1,58.0,29.97,South,180,3.8,4.3,61,0.00,,---,0.00,VWS V14.01,2013-08-06 21:49:00,
2013-08-06 14:54:00,72.5,56.9,29.97,West,270,8.5,8.5,58,0.00,,---,0.00,VWS V14.01,2013-08-06 21:54:00,
2013-08-06 14:59:00,72.9,58.6,29.97,NW,315,4.0,4.3,61,0.00,,---,0.00,VWS V14.01,2013-08-06 21:59:00,
2013-08-06 15:04:00,72.7,57.1,29.97,South,180,3.6,6.5,58,0.00,,---,0.00,VWS V14.01,2013-08-06 22:04:00,
2013-08-06 15:09:00,72.7,56.6,29.97,South,180,4.0,6.3,57,0.00,,---,0.00,VWS V14.01,2013-08-06 22:09:00,
2013-08-06 15:14:00,72.5,55.4,29.97,South,180,3.1,6.3,55,0.00,,---,0.00,VWS V14.01,2013-08-06 22:14:00,
2013-08-06 15:19:00,72.7,57.1,29.97,South,180,2.9,4.9,58,0.00,,---,0.00,VWS V14.01,2013-08-06 22:19:00,
2013-08-06 15:24:00,72.9,58.2,29.97,West,270,2.5,9.4,60,0.00,,---,0.00,VWS V14.01,2013-08-06 22:24:00,
2013-08-06 15:29:00,72.1,55.6,29.97,South,180,2.7,6.3,56,0.00,,---,0.00,VWS V14.01,2013-08-06 22:29:00,
2013-08-06 15:35:00,71.2,55.7,29.97,West,270,5.4,8.7,58,0.00,,---,0.00,VWS V14.01,2013-08-06 22:35:00,
2013-08-06 15:40:00,71.6,55.1,29.97,South,180,3.8,3.8,56,0.00,,---,0.00,VWS V14.01,2013-08-06 22:40:00,
2013-08-06 15:45:00,72.1,56.6,29.97,South,180,4.3,4.3,58,0.00,,---,0.00,VWS V14.01,2013-08-06 22:45:00,
2013-08-06 15:50:00,72.7,57.1,29.97,West,270,7.8,7.8,58,0.00,,---,0.00,VWS V14.01,2013-08-06 22:50:00,
2013-08-06 15:55:00,72.7,57.1,29.97,West,270,4.7,4.7,58,0.00,,---,0.00,VWS V14.01,2013-08-06 22:55:00,
2013-08-06 16:00:00,72.7,57.1,29.97,West,270,7.8,7.8,58,0.00,,---,0.00,VWS V14.01,2013-08-06 23:00:00,
2013-08-06 16:05:00,71.6,55.1,29.97,West,270,3.1,7.2,56,0.00,,---,0.00,VWS V14.01,2013-08-06 23:05:00,
2013-08-06 16:10:00,71.6,55.6,29.97,West,270,4.0,8.5,57,0.00,,---,0.00,VWS V14.01,2013-08-06 23:10:00,
2013-08-06 16:15:00,71.2,54.8,29.97,SSE,158,3.6,6.3,56,0.00,,---,0.00,VWS V14.01,2013-08-06 23:15:00,
2013-08-06 16:20:00,70.7,54.7,29.97,South,180,2.9,6.9,57,0.00,,---,0.00,VWS V14.01,2013-08-06 23:20:00,
2013-08-06 16:25:00,71.4,55.9,29.97,West,270,4.9,6.3,58,0.00,,---,0.00,VWS V14.01,2013-08-06 23:25:00,
2013-08-06 16:30:00,71.4,55.4,29.97,West,270,6.5,6.5,57,0.00,,---,0.00,VWS V14.01,2013-08-06 23:30:00,
2013-08-06 16:35:00,71.1,55.1,29.97,West,270,2.5,7.6,57,0.00,,---,0.00,VWS V14.01,2013-08-06 23:35:00,
2013-08-06 16:40:00,71.4,55.4,29.97,West,270,4.0,7.6,57,0.00,,---,0.00,VWS V14.01,2013-08-06 23:40:00,
2013-08-06 16:45:00,71.4,55.4,29.97,SSE,158,3.8,8.5,57,0.00,,---,0.00,VWS V14.01,2013-08-06 23:45:00,
2013-08-06 16:50:00,71.4,55.4,29.97,NNW,338,3.1,5.6,57,0.00,,---,0.00,VWS V14.01,2013-08-06 23:50:00,
2013-08-06 16:55:00,71.4,54.9,29.97,NNW,338,8.1,8.1,56,0.00,,---,0.00,VWS V14.01,2013-08-06 23:55:00,
2013-08-06 17:00:00,71.4,55.9,29.97,SE,135,3.4,8.7,58,0.00,,---,0.00,VWS V14.01,2013-08-07 00:00:00,
2013-08-06 17:05:00,71.1,55.5,29.97,WNW,292,5.4,7.2,58,0.00,,---,0.00,VWS V14.01,2013-08-07 00:05:00,
2013-08-06 17:10:00,70.5,54.6,29.97,SE,135,7.6,7.6,57,0.00,,---,0.00,VWS V14.01,2013-08-07 00:10:00,
2013-08-06 17:15:00,70.5,55.0,29.97,West,270,7.6,7.6,58,0.00,,---,0.00,VWS V14.01,2013-08-07 00:15:00,
2013-08-06 17:20:00,70.0,54.5,29.97,South,180,2.0,8.1,58,0.00,,---,0.00,VWS V14.01,2013-08-07 00:20:00,
2013-08-06 17:25:00,68.4,53.5,29.97,West,270,3.8,3.8,59,0.00,,---,0.00,VWS V14.01,2013-08-07 00:25:00,
2013-08-06 17:30:00,66.9,52.6,29.97,SW,225,3.6,5.8,60,0.00,,---,0.00,VWS V14.01,2013-08-07 00:30:00,
2013-08-06 17:35:00,66.2,52.4,29.97,SE,135,1.6,5.8,61,0.00,,---,0.00,VWS V14.01,2013-08-07 00:35:00,
2013-08-06 17:40:00,67.1,53.7,29.97,West,270,2.5,4.7,62,0.00,,---,0.00,VWS V14.01,2013-08-07 00:40:00,
2013-08-06 17:45:00,67.5,54.0,29.97,West,270,4.3,9.6,62,0.00,,---,0.00,VWS V14.01,2013-08-07 00:45:00,
2013-08-06 17:50:00,67.5,54.0,29.97,West,270,5.8,5.8,62,0.00,,---,0.00,VWS V14.01,2013-08-07 00:50:00,
2013-08-06 17:55:00,67.1,53.7,29.97,SE,135,6.3,6.3,62,0.00,,---,0.00,VWS V14.01,2013-08-07 00:55:00,
2013-08-06 18:00:00,66.4,53.0,29.97,West,270,3.4,6.3,62,0.00,,---,0.00,VWS V14.01,2013-08-07 01:00:00,
2013-08-06 18:05:00,65.8,52.9,29.97,East,90,4.0,6.3,63,0.00,,---,0.00,VWS V14.01,2013-08-07 01:05:00,
2013-08-06 18:10:00,65.5,53.0,29.97,WNW,292,2.9,3.4,64,0.00,,---,0.00,VWS V14.01,2013-08-07 01:10:00,
2013-08-06 18:15:00,65.1,52.7,29.97,WNW,292,3.1,5.6,64,0.00,,---,0.00,VWS V14.01,2013-08-07 01:15:00,
2013-08-06 18:20:00,64.9,52.9,29.97,NW,315,1.6,3.6,65,0.00,,---,0.00,VWS V14.01,2013-08-07 01:20:00,
2013-08-06 18:25:00,65.1,53.1,29.97,South,180,3.1,4.0,65,0.00,,---,0.00,VWS V14.01,2013-08-07 01:25:00,
2013-08-06 18:30:00,64.9,52.9,30.00,SW,225,2.7,6.0,65,0.00,,---,0.00,VWS V14.01,2013-08-07 01:30:00,
2013-08-06 18:35:00,64.4,52.4,30.00,South,180,2.9,5.4,65,0.00,,---,0.00,VWS V14.01,2013-08-07 01:35:00,
2013-08-06 18:40:00,63.7,51.7,30.00,ESE,112,4.3,6.0,65,0.00,,---,0.00,VWS V14.01,2013-08-07 01:40:00,
2013-08-06 18:45:00,63.7,52.1,30.00,SE,135,3.6,3.8,66,0.00,,---,0.00,VWS V14.01,2013-08-07 01:45:00,
2013-08-06 18:50:00,63.3,52.2,30.00,SE,135,3.4,4.7,67,0.00,,---,0.00,VWS V14.01,2013-08-07 01:50:00,
2013-08-06 18:55:00,63.3,52.2,30.00,SW,225,2.9,3.4,67,0.00,,---,0.00,VWS V14.01,2013-08-07 01:55:00,
2013-08-06 19:00:00,63.3,52.2,29.97,SSE,158,2.0,2.7,67,0.00,,---,0.00,VWS V14.01,2013-08-07 02:00:00,
2013-08-06 19:05:00,62.8,52.1,29.97,South,180,2.2,3.6,68,0.00,,---,0.00,VWS V14.01,2013-08-07 02:05:00,
2013-08-06 19:10:00,62.6,51.9,29.97,West,270,4.9,4.9,68,0.00,,---,0.00,VWS V14.01,2013-08-07 02:10:00,
2013-08-06 19:16:00,62.6,52.3,29.97,SE,135,3.8,3.8,69,0.00,,---,0.00,VWS V14.01,2013-08-07 02:16:00,
2013-08-06 19:21:00,62.2,52.0,29.97,West,270,4.7,4.7,69,0.00,,---,0.00,VWS V14.01,2013-08-07 02:21:00,
2013-08-06 19:26:00,61.9,51.6,29.97,South,180,2.0,3.1,69,0.00,,---,0.00,VWS V14.01,2013-08-07 02:26:00,
2013-08-06 19:31:00,61.5,51.7,29.97,ENE,68,3.6,4.5,70,0.00,,---,0.00,VWS V14.01,2013-08-07 02:31:00,
2013-08-06 19:36:00,61.5,51.7,29.97,WNW,292,0.0,3.1,70,0.00,,---,0.00,VWS V14.01,2013-08-07 02:36:00,
2013-08-06 19:41:00,61.3,51.5,29.97,West,270,2.2,3.6,70,0.00,,---,0.00,VWS V14.01,2013-08-07 02:41:00,
2013-08-06 19:46:00,61.0,51.1,30.00,South,180,2.5,2.7,70,0.00,,---,0.00,VWS V14.01,2013-08-07 02:46:00,
2013-08-06 19:51:00,61.0,51.5,30.00,South,180,2.5,7.8,71,0.00,,---,0.00,VWS V14.01,2013-08-07 02:51:00,
2013-08-06 19:56:00,60.8,51.3,30.00,South,180,2.5,4.5,71,0.00,,---,0.00,VWS V14.01,2013-08-07 02:56:00,
2013-08-06 20:01:00,60.6,51.2,30.00,East,90,2.0,5.6,71,0.00,,---,0.00,VWS V14.01,2013-08-07 03:01:00,
2013-08-06 20:06:00,60.4,51.4,30.00,South,180,3.4,3.4,72,0.00,,---,0.00,VWS V14.01,2013-08-07 03:06:00,
2013-08-06 20:11:00,60.3,51.2,30.00,West,270,2.9,2.9,72,0.00,,---,0.00,VWS V14.01,2013-08-07 03:11:00,
2013-08-06 20:16:00,60.1,51.0,30.00,South,180,2.5,2.7,72,0.00,,---,0.00,VWS V14.01,2013-08-07 03:16:00,
2013-08-06 20:21:00,59.9,51.2,30.00,SW,225,4.0,4.0,73,0.00,,---,0.00,VWS V14.01,2013-08-07 03:21:00,
2013-08-06 20:26:00,59.7,51.1,30.00,SSE,158,2.0,2.5,73,0.00,,---,0.00,VWS V14.01,2013-08-07 03:26:00,
2013-08-06 20:31:00,59.7,51.1,30.00,South,180,3.8,3.8,73,0.00,,---,0.00,VWS V14.01,2013-08-07 03:31:00,
2013-08-06 20:36:00,59.5,50.9,30.00,SE,135,2.7,4.0,73,0.00,,---,0.00,VWS V14.01,2013-08-07 03:36:00,
2013-08-06 20:41:00,59.7,51.1,30.00,SW,225,1.3,6.0,73,0.00,,---,0.00,VWS V14.01,2013-08-07 03:41:00,
2013-08-06 20:46:00,59.5,50.9,30.00,South,180,2.7,2.7,73,0.00,,---,0.00,VWS V14.01,2013-08-07 03:46:00,
2013-08-06 20:51:00,59.4,50.7,30.00,South,180,4.0,4.0,73,0.00,,---,0.00,VWS V14.01,2013-08-07 03:51:00,
2013-08-06 20:56:00,59.4,51.1,30.00,SW,225,0.0,2.9,74,0.00,,---,0.00,VWS V14.01,2013-08-07 03:56:00,
2013-08-06 21:01:00,59.2,50.9,30.00,South,180,1.1,3.4,74,0.00,,---,0.00,VWS V14.01,2013-08-07 04:01:00,
2013-08-06 21:02:00,59.2,50.9,30.00,SW,225,2.7,3.4,74,0.00,,---,0.00,VWS V14.01,2013-08-07 04:02:00,
2013-08-06 21:03:00,59.2,50.9,30.00,West,270,3.8,3.8,74,0.00,,---,0.00,VWS V14.01,2013-08-07 04:03:00,
2013-08-06 21:05:00,59.2,50.5,30.00,South,180,3.6,3.8,73,0.00,,---,0.00,VWS V14.01,2013-08-07 04:05:00,
2013-08-06 21:06:00,59.2,50.5,30.00,West,270,2.7,3.8,73,0.00,,---,0.00,VWS V14.01,2013-08-07 04:06:00,
2013-08-06 21:11:00,59.2,50.9,30.00,South,180,7.4,7.4,74,0.00,,---,0.00,VWS V14.01,2013-08-07 04:11:00,
2013-08-06 21:16:00,59.0,50.7,30.03,SSE,158,2.0,3.8,74,0.00,,---,0.00,VWS V14.01,2013-08-07 04:16:00,
2013-08-06 21:21:00,59.2,50.9,30.03,West,270,1.1,3.4,74,0.00,,---,0.00,VWS V14.01,2013-08-07 04:21:00,
2013-08-06 21:26:00,59.0,50.7,30.03,SW,225,2.9,3.6,74,0.00,,---,0.00,VWS V14.01,2013-08-07 04:26:00,
2013-08-06 21:31:00,59.0,51.1,30.03,South,180,3.4,3.4,75,0.00,,---,0.00,VWS V14.01,2013-08-07 04:31:00,
2013-08-06 21:36:00,58.8,50.9,30.03,West,270,2.7,3.8,75,0.00,,---,0.00,VWS V14.01,2013-08-07 04:36:00,
2013-08-06 21:41:00,58.8,50.9,30.03,South,180,2.7,4.3,75,0.00,,---,0.00,VWS V14.01,2013-08-07 04:41:00,
2013-08-06 21:46:00,58.8,51.3,30.03,West,270,2.9,2.9,76,0.00,,---,0.00,VWS V14.01,2013-08-07 04:46:00,
2013-08-06 21:51:00,59.0,51.5,30.03,SW,225,3.8,3.8,76,0.00,,---,0.00,VWS V14.01,2013-08-07 04:51:00,
2013-08-06 21:56:00,58.8,51.6,30.03,West,270,3.6,3.6,77,0.00,,---,0.00,VWS V14.01,2013-08-07 04:56:00,
2013-08-06 22:01:00,58.8,51.3,30.03,West,270,2.7,3.8,76,0.00,,---,0.00,VWS V14.01,2013-08-07 05:01:00,
2013-08-06 22:06:00,58.5,51.3,30.03,South,180,1.6,2.5,77,0.00,,---,0.00,VWS V14.01,2013-08-07 05:06:00,
2013-08-06 22:11:00,58.6,51.5,30.03,West,270,1.1,3.4,77,0.00,,---,0.00,VWS V14.01,2013-08-07 05:11:00,
2013-08-06 22:16:00,58.8,51.6,30.03,West,270,3.4,3.4,77,0.00,,---,0.00,VWS V14.01,2013-08-07 05:16:00,
2013-08-06 22:21:00,58.6,51.1,30.03,WNW,292,1.6,3.4,76,0.00,,---,0.00,VWS V14.01,2013-08-07 05:21:00,
2013-08-06 22:26:00,58.5,51.3,30.03,South,180,1.3,2.5,77,0.00,,---,0.00,VWS V14.01,2013-08-07 05:26:00,
2013-08-06 22:31:00,58.5,51.3,30.03,NNW,338,2.5,3.4,77,0.00,,---,0.00,VWS V14.01,2013-08-07 05:31:00,
2013-08-06 22:36:00,58.3,51.1,30.03,NW,315,0.9,3.1,77,0.00,,---,0.00,VWS V14.01,2013-08-07 05:36:00,
2013-08-06 22:41:00,58.1,51.3,30.03,SSE,158,1.1,2.5,78,0.00,,---,0.00,VWS V14.01,2013-08-07 05:41:00,
2013-08-06 22:46:00,58.3,51.5,30.03,West,270,3.1,3.6,78,0.00,,---,0.00,VWS V14.01,2013-08-07 05:46:00,
2013-08-06 22:51:00,58.3,51.1,30.03,West,270,3.6,4.3,77,0.00,,---,0.00,VWS V14.01,2013-08-07 05:51:00,
2013-08-06 22:56:00,58.3,51.5,30.03,West,270,2.2,3.1,78,0.00,,---,0.00,VWS V14.01,2013-08-07 05:56:00,
2013-08-06 23:01:00,58.5,51.6,30.03,WNW,292,2.5,2.5,78,0.00,,---,0.00,VWS V14.01,2013-08-07 06:01:00,
2013-08-06 23:06:00,58.1,51.6,30.03,NW,315,1.6,3.8,79,0.00,,---,0.00,VWS V14.01,2013-08-07 06:06:00,
2013-08-06 23:11:00,58.1,51.6,30.03,South,180,2.7,3.1,79,0.00,,---,0.00,VWS V14.01,2013-08-07 06:11:00,
2013-08-06 23:16:00,58.1,51.6,30.03,South,180,2.7,3.8,79,0.00,,---,0.00,VWS V14.01,2013-08-07 06:16:00,
2013-08-06 23:21:00,58.3,51.8,30.03,West,270,2.7,3.8,79,0.00,,---,0.00,VWS V14.01,2013-08-07 06:21:00,
2013-08-06 23:26:00,58.3,51.5,30.03,South,180,3.8,5.8,78,0.00,,---,0.00,VWS V14.01,2013-08-07 06:26:00,
2013-08-06 23:31:00,58.1,51.6,30.03,West,270,2.2,4.3,79,0.00,,---,0.00,VWS V14.01,2013-08-07 06:31:00,
2013-08-06 23:36:00,58.1,51.6,30.03,SSE,158,3.4,4.9,79,0.00,,---,0.00,VWS V14.01,2013-08-07 06:36:00,
2013-08-06 23:41:00,57.9,51.5,30.03,South,180,1.1,3.1,79,0.00,,---,0.00,VWS V14.01,2013-08-07 06:41:00,
2013-08-06 23:46:00,57.9,51.5,30.03,West,270,1.1,2.5,79,0.00,,---,0.00,VWS V14.01,2013-08-07 06:46:00,
2013-08-06 23:51:00,57.9,51.8,30.03,SSE,158,2.9,3.6,80,0.00,,---,0.00,VWS V14.01,2013-08-07 06:51:00,
2013-08-06 23:56:00,57.9,51.5,30.03,West,270,5.6,5.6,79,0.00,,---,0.00,VWS V14.01,2013-08-07 06:56:00,